Temperature
19 19 18 19 18 18 18 19 18 18 18 18 18 19 18 18 18 18 18 18 18 18 18 18 18 17 17 17 17 17 17 17 17 17 17 17 17 17 17 17 17 17 17
19 19 19 19 18 18 18 18 18 19 18 19 19 18 18 18 18 18 18 18 18 18 18 18 18 18 18 17 17 17 17 17 17 17 17 17 17 17 17 17 17 16 16
19 19 19 18 18 18 18 19 18 19 19 19 19 19 19 19 18 18 18 18 18 18 18 18 18 18 18 17 17 17 17 17 17 17 17 17 17 17 17 16 16 16 16
19 19 19 19 19 19 19 19 19 19 19 19 19 19 19 19 19 18 18 18 18 18 18 18 18 18 18 17 17 17 17 17 17 17 17 17 17 17 16 16 16 16 16
19 19 19 19 19 19 18 18 19 19 19 19 19 19 19 19 19 19 19 18 18 18 18 18 18 18 18 18 17 17 17 17 17 17 17 17 17 16 16 16 16 16 16
19 19 19 19 19 19 18 18 19 19 19 19 19 19 19 19 19 19 19 19 18 18 18 18 18 17 17 17 17 17 17 17 17 17 17 17 17 16 16 16 16 16 16
19 19 19 19 18 18 18 19 19 19 19 19 19 19 19 19 19 19 19 19 19 18 18 18 17 17 17 17 17 17 17 17 17 17 17 17 16 16 16 16 16 16 16
19 19 19 18 18 18 18 18 18 18 19 19 19 19 19 19 19 19 19 19 19 18 18 18 18 17 17 17 17 17 17 17 17 17 17 16 16 16 16 16 16 16 16
19 19 19 18 18 18 18 18 18 18 19 19 19 19 18 19 19 19 19 19 19 18 18 18 18 17 17 17 17 17 17 16 16 16 16 16 16 16 16 16 16 16 16
19 19 18 18 18 18 18 18 18 18 18 18 18 19 18 18 19 19 19 19 19 18 18 18 17 17 17 17 17 16 16 16 16 16 16 16 16 16 16 15 16 16 16
19 18 18 18 18 18 18 18 18 18 18 18 18 18 18 18 19 18 18 19 18 18 18 18 17 17 17 17 16 16 16 16 16 16 16 16 16 16 16 15 15 15 15
19 18 18 18 18 18 18 18 18 18 18 18 18 18 18 18 18 18 18 18 18 18 18 18 17 17 17 16 16 16 16 16 16 16 16 16 16 16 15 15 15 15 15
18 18 18 18 18 18 18 18 18 17 17 17 17 18 17 18 18 18 18 18 18 18 18 17 17 17 16 16 16 16 16 16 16 16 16 16 16 15 15 15 15 15 15
18 18 18 18 18 18 17 17 17 17 17 17 17 17 17 17 17 17 17 17 17 17 18 17 17 17 16 16 16 16 16 16 16 16 16 16 16 15 15 15 15 15 15
18 18 18 18 18 17 17 17 17 17 17 17 17 17 17 17 17 17 17 17 17 17 17 17 17 17 16 16 16 16 16 16 15 15 15 15 15 15 15 15 15 15 15
18 18 18 17 17 17 17 17 17 16 16 16 16 16 17 17 17 17 17 17 16 16 16 16 16 16 16 16 16 16 15 15 15 15 15 15 15 15 15 15 15 15 15
18 18 17 17 17 17 17 17 16 16 16 16 16 16 16 16 16 16 16 16 16 16 16 16 16 16 16 16 16 15 15 15 15 15 15 15 15 15 15 15 15 15 14
17 17 17 17 17 17 17 16 16 16 16 15 15 15 16 16 16 16 16 15 16 16 16 16 16 16 16 15 15 15 15 15 15 15 15 15 15 15 15 15 14 14 14
17 16 16 16 16 16 16 16 16 15 15 15 15 15 15 15 15 15 15 15 15 15 15 15 15 15 15 15 15 15 15 15 15 15 15 15 15 15 14 14 14 14 14
16 16 16 16 16 16 16 16 16 15 15 15 15 15 15 15 15 15 15 15 15 15 15 15 15 15 15 15 15 14 14 14 14 14 14 14 14 14 14 14 14 14 14
16 16 16 16 16 15 15 15 15 15 15 15 14 14 14 14 14 14 14 14 14 14 14 14 14 14 14 14 14 14 14 14 14 14 14 14 14 14 14 14 14 14 14
16 16 16 16 15 15 15 15 15 15 14 14 14 14 14 14 14 14 14 14 14 14 14 14 14 14 14 14 14 14 13 13 13 14 14 14 14 14 14 14 14 14 14
15 15 15 15 15 15 15 15 15 15 14 14 14 14 14 14 14 14 14 14 14 14 14 13 13 13 13 13 13 13 13 13 13 13 13 13 13 13 13 13 13 13 13
15 15 15 15 15 15 15 15 14 14 14 14 14 14 14 14 14 13 13 13 13 13 13 13 13 13 13 13 13 13 13 13 13 13 13 13 13 13 13 13 13 13 13
14 14 14 14 14 15 14 14 14 14 14 14 14 13 13 13 13 13 13 13 13 13 13 13 13 13 13 13 13 13 13 13 13 13 13 13 13 13 13 13 13 13 13
14 14 14 14 14 14 14 14 14 14 14 13 13 13 13 13 13 13 13 13 13 13 13 13 13 13 13 13 13 13 13 12 12 12 13 13 13 12 12 12 12 12 12
Wind_Speed
2 2 2 2 1 1 2 2 1 1 0 0 1 1 1 2 3 5 6 10 10 10 9 8 8 8 8 7 7 7 7 7 10 10 10 10 10 10 10 11 11 11 11
3 2 3 2 2 2 2 1 1 1 1 1 1 1 1 1 3 4 6 8 11 11 10 9 8 8 8 8 7 7 7 7 8 9 10 10 10 10 11 11 11 11 11
3 2 2 2 2 1 1 1 1 0 1 1 1 1 1 1 2 3 4 6 7 10 11 10 9 8 8 8 7 7 7 6 7 8 9 10 10 11 11 11 11 12 11
3 1 1 2 1 1 1 1 1 0 1 1 1 1 1 2 2 3 3 5 6 7 10 11 10 9 8 8 8 8 8 8 8 8 7 8 9 10 11 11 11 11 11
3 2 2 2 1 1 1 1 2 1 0 1 1 1 1 2 2 2 3 4 5 6 8 10 12 10 9 9 9 9 8 8 8 8 8 8 8 9 10 10 10 10 11
3 2 1 1 1 2 2 2 2 1 0 1 1 1 0 1 1 1 2 3 4 5 6 7 8 8 10 9 8 8 8 9 8 8 8 8 8 8 9 10 11 11 11
2 2 2 1 2 2 2 1 1 2 1 1 0 1 1 1 1 1 1 1 2 4 5 6 6 5 5 6 5 5 6 9 8 8 8 8 8 9 9 9 10 11 12
1 2 2 2 2 2 2 1 1 2 2 0 0 1 1 0 1 2 2 2 2 2 3 5 5 5 4 5 4 6 5 6 8 9 9 9 9 9 9 9 10 10 10
1 2 1 2 1 1 1 1 1 2 2 2 0 0 0 1 1 1 1 2 2 2 2 3 4 4 4 5 5 5 6 6 6 6 8 8 9 9 9 9 10 10 10
1 1 1 0 1 1 1 2 2 2 2 2 2 1 0 1 1 1 1 1 2 2 2 1 2 4 4 5 6 7 7 6 5 5 6 7 8 8 9 9 9 9 9
1 0 1 1 0 0 1 1 2 2 3 3 2 2 1 1 2 1 1 1 0 1 2 2 1 2 4 4 5 6 8 7 5 4 5 5 6 7 9 10 10 9 9
1 1 1 1 1 1 1 1 1 2 2 2 3 3 2 1 2 1 1 1 1 1 2 2 1 1 3 4 4 7 9 8 6 5 4 5 5 6 8 9 10 10 9
0 1 1 1 1 1 1 1 1 1 2 2 2 2 3 2 2 2 2 2 1 1 1 1 1 1 2 3 4 6 7 8 7 6 5 5 5 5 7 8 8 9 9
1 1 1 1 1 1 1 1 1 1 1 2 3 3 3 2 2 2 1 2 2 1 0 0 1 1 1 3 4 6 5 7 8 7 6 5 5 5 6 7 8 8 8
1 2 1 1 1 1 2 2 1 2 2 2 3 3 3 3 2 2 2 1 2 2 2 1 0 1 1 2 5 4 4 7 8 8 7 7 6 5 4 5 6 7 7
2 2 1 1 1 1 1 1 1 1 1 2 2 2 3 3 3 3 2 2 1 2 2 1 1 1 1 1 3 2 3 7 8 9 8 8 7 7 6 5 5 6 6
2 1 1 1 1 1 1 1 1 1 1 2 2 2 2 3 4 4 3 3 2 1 2 2 1 1 0 1 1 3 3 4 5 9 9 9 9 8 7 6 6 6 6
1 1 1 1 1 1 1 1 2 2 2 2 2 2 3 3 3 3 3 4 3 2 2 3 3 2 1 1 1 3 3 2 2 6 10 10 10 9 9 8 7 7 7
1 1 1 1 1 1 1 1 2 2 2 2 2 2 2 3 3 3 3 3 3 3 2 3 3 2 1 1 1 2 3 2 3 3 8 9 10 10 10 9 8 8 8
2 2 2 1 1 1 2 3 2 2 2 2 1 1 2 2 2 3 3 3 3 3 3 3 3 2 1 1 1 1 2 2 3 3 2 5 7 9 10 10 9 9 9
2 2 2 2 2 1 2 3 3 2 1 2 2 2 2 1 2 3 3 3 3 3 3 3 3 3 2 2 2 2 3 2 3 2 1 2 2 3 4 7 9 9 10
2 2 2 2 2 2 4 5 3 3 2 1 2 3 2 1 1 2 4 4 4 3 3 3 3 3 4 3 2 3 3 3 3 2 2 3 2 2 3 4 6 8 9
2 2 2 2 2 2 3 3 4 3 3 2 3 3 5 3 2 2 4 4 5 5 5 4 5 5 4 4 4 4 4 4 5 4 3 4 2 3 2 3 4 6 8
2 2 2 2 1 2 2 2 4 3 2 2 2 3 3 4 4 4 4 3 4 4 5 4 4 5 5 5 5 5 6 5 5 4 3 4 3 3 2 1 2 3 5
2 2 2 1 1 1 2 2 3 2 2 2 2 2 3 2 4 5 3 4 4 5 6 5 6 7 8 8 6 4 5 5 5 3 2 2 2 2 2 2 2 3 4
2 2 2 2 1 1 1 2 3 3 2 2 1 1 3 3 4 5 4 4 5 6 6 6 5 5 5 6 7 6 5 5 4 3 2 2 2 1 2 1 1 1 2
Wind_Direction
62 53 54 48 40 80 104 99 102 89 94 236 195 145 121 129 140 143 158 166 172 177 182 188 193 192 194 202 206 210 221 212 202 194 198 205 206 206 209 209 208 206 203
77 57 67 51 44 39 56 72 110 136 163 187 177 135 138 156 142 157 161 175 184 185 189 195 196 194 196 200 205 208 215 208 200 199 203 207 209 210 211 211 209 207 206
68 58 57 67 52 55 56 62 20 13 155 175 172 170 165 146 144 152 164 170 178 188 193 193 192 193 195 199 200 199 201 201 204 209 211 210 209 210 214 215 213 211 211
67 58 62 61 81 100 93 104 118 62 31 360 56 310 158 148 158 158 168 171 172 176 187 194 194 194 200 203 204 204 204 206 207 203 206 209 213 214 216 217 216 213 213
62 49 65 52 52 72 49 8 59 72 94 338 294 224 209 159 166 187 177 164 162 165 168 187 193 195 204 209 210 209 207 205 200 201 202 208 213 215 215 214 215 214 214
60 44 78 55 39 69 46 26 10 352 335 255 286 43 255 142 161 140 166 157 156 170 171 166 182 199 210 214 211 207 202 200 201 202 202 203 208 213 217 216 215 215 215
61 52 39 39 45 72 63 32 12 320 289 301 329 324 280 173 125 138 148 129 149 150 145 147 165 178 182 197 201 194 197 199 199 200 203 208 213 217 220 221 220 218 216
67 77 57 17 32 41 52 28 350 321 307 354 286 296 314 349 290 203 156 170 145 140 144 158 163 167 163 158 174 176 173 184 197 201 205 212 217 221 221 222 222 219 215
82 54 67 40 5 34 46 324 323 335 326 315 44 77 348 325 294 261 187 151 142 132 142 145 154 157 160 143 151 169 174 182 192 201 212 216 220 223 223 224 224 221 218
104 100 100 71 333 18 28 322 19 331 318 321 314 289 161 144 267 297 296 194 167 152 140 142 141 149 145 141 139 153 168 179 190 209 220 222 222 224 223 223 224 225 223
119 169 144 115 38 8 19 353 355 336 341 341 336 331 327 277 259 241 266 290 254 143 150 159 169 150 144 137 143 151 163 172 183 206 222 228 232 232 227 226 226 226 225
151 137 105 89 61 9 17 351 341 330 335 345 340 344 347 329 323 312 300 295 280 185 144 144 161 150 156 148 154 147 161 170 179 197 217 229 240 240 234 230 228 228 228
59 76 49 66 36 17 347 340 300 323 338 338 328 326 323 323 323 330 331 319 314 283 165 162 145 129 144 119 129 151 164 173 184 198 213 227 237 241 237 232 231 231 231
33 70 89 83 52 357 350 13 344 332 345 332 327 328 313 322 318 336 327 323 321 317 8 126 122 128 142 127 142 172 178 181 189 196 209 222 227 233 233 227 228 228 233
15 67 83 76 45 10 359 20 359 355 1 335 332 334 328 320 323 327 319 326 310 302 308 329 327 160 156 129 156 175 173 193 196 198 207 215 218 224 230 226 228 230 234
27 35 24 43 46 9 6 351 349 352 339 331 321 342 340 344 340 336 330 317 292 277 286 299 307 32 52 311 161 207 195 196 202 205 208 211 213 219 221 225 230 232 235
22 9 353 356 21 35 8 343 336 348 328 321 324 2 354 353 348 344 342 328 315 313 297 299 304 329 238 259 218 245 240 211 206 203 204 208 212 217 219 224 231 235 237
29 5 351 342 346 41 34 2 333 335 328 332 338 3 354 354 350 342 338 331 326 313 288 289 296 287 278 276 237 256 270 262 215 203 204 206 209 213 217 221 229 234 236
12 5 354 347 346 16 12 347 326 319 323 332 342 1 350 349 339 336 335 331 324 324 303 290 288 297 290 319 332 287 294 296 283 229 204 209 213 215 218 221 223 227 233
29 12 352 347 356 28 351 333 315 305 323 326 342 347 328 329 335 328 325 334 326 325 314 299 296 296 293 321 318 291 290 290 292 302 233 214 215 219 222 220 222 228 232
24 16 343 344 333 346 343 336 311 304 295 298 319 319 318 21 31 342 332 333 329 322 315 310 301 303 310 334 323 299 299 302 292 286 288 268 218 218 222 228 230 233 232
18 3 337 345 346 341 9 24 7 327 321 319 317 312 304 318 336 317 309 308 306 300 310 304 303 303 304 308 306 300 296 301 298 294 288 275 247 229 225 214 223 220 220
8 347 343 353 14 359 7 7 349 325 332 336 325 318 317 339 7 331 301 285 286 276 263 270 283 288 290 300 303 299 298 293 286 287 293 278 255 239 236 246 210 206 209
347 342 329 326 327 337 8 348 325 296 303 311 314 315 319 329 334 333 306 307 301 296 275 260 261 269 280 289 286 276 279 281 276 278 267 266 268 257 257 194 197 197 206
329 310 315 346 322 321 349 342 309 282 282 286 301 331 321 328 342 338 314 306 308 306 299 293 271 261 264 273 273 280 277 278 282 278 273 259 272 284 259 224 211 187 178
313 315 331 342 336 353 13 356 321 296 304 310 320 340 10 359 344 342 323 307 302 304 308 305 300 281 268 267 261 246 258 271 281 283 280 276 271 290 298 266 186 199 190
Height
1502 1503 1502 1502 1502 1503 1503 1502 1503 1504 1504 1505 1505 1506 1506 1506 1507 1507 1508 1508 1509 1510 1510 1511 1512 1512 1513 1514 1514 1515 1514 1512 1511 1515 1520 1522 1524 1526 1528 1529 1531 1533 1534
1503 1503 1503 1503 1503 1503 1503 1503 1504 1505 1505 1506 1506 1506 1506 1507 1507 1507 1507 1507 1508 1509 1509 1510 1511 1511 1512 1512 1513 1513 1513 1512 1513 1515 1518 1520 1522 1524 1525 1527 1528 1530 1532
1504 1504 1504 1504 1504 1504 1504 1504 1504 1505 1506 1506 1506 1506 1506 1507 1507 1507 1507 1506 1507 1507 1508 1509 1509 1510 1510 1511 1511 1512 1512 1512 1513 1515 1517 1518 1520 1521 1522 1524 1525 1527 1529
1505 1505 1505 1505 1505 1505 1505 1505 1505 1505 1506 1506 1506 1506 1506 1506 1506 1506 1506 1506 1506 1506 1507 1507 1508 1509 1509 1510 1510 1510 1510 1511 1512 1513 1514 1516 1517 1519 1520 1521 1522 1524 1526
1506 1506 1506 1505 1505 1505 1505 1505 1506 1506 1506 1506 1506 1506 1506 1506 1506 1506 1505 1506 1506 1506 1506 1506 1507 1508 1508 1508 1508 1508 1508 1509 1510 1511 1512 1513 1515 1516 1518 1518 1519 1521 1523
1506 1506 1506 1506 1506 1505 1505 1506 1506 1506 1506 1506 1506 1506 1506 1506 1506 1505 1505 1505 1505 1505 1505 1505 1506 1506 1506 1506 1506 1505 1505 1506 1507 1509 1510 1511 1512 1514 1515 1516 1517 1519 1520
1507 1506 1506 1506 1506 1505 1505 1506 1506 1506 1506 1506 1506 1506 1505 1505 1505 1505 1505 1505 1505 1505 1505 1504 1504 1504 1504 1504 1503 1501 1502 1504 1505 1506 1507 1509 1510 1511 1512 1513 1514 1515 1517
1507 1507 1506 1506 1506 1506 1506 1505 1505 1505 1506 1506 1506 1505 1505 1506 1505 1505 1504 1504 1505 1505 1505 1504 1504 1503 1503 1502 1501 1500 1501 1502 1503 1505 1505 1506 1507 1508 1509 1510 1510 1512 1513
1507 1507 1506 1506 1506 1506 1505 1505 1505 1505 1505 1505 1506 1506 1505 1505 1504 1505 1504 1504 1504 1504 1504 1504 1503 1502 1502 1501 1500 1500 1501 1501 1502 1503 1503 1504 1504 1505 1506 1507 1507 1508 1510
1507 1507 1506 1506 1506 1505 1505 1505 1505 1504 1504 1504 1504 1505 1505 1504 1504 1504 1504 1503 1503 1503 1503 1503 1502 1501 1501 1500 1499 1499 1500 1500 1500 1501 1501 1501 1502 1502 1503 1503 1504 1505 1506
1507 1507 1506 1506 1505 1505 1505 1504 1504 1503 1503 1503 1503 1504 1504 1503 1503 1503 1503 1503 1503 1502 1501 1501 1501 1500 1499 1499 1498 1498 1498 1498 1498 1498 1498 1499 1499 1499 1500 1500 1501 1502 1503
1507 1506 1506 1506 1505 1504 1504 1504 1503 1503 1502 1502 1502 1502 1503 1502 1502 1502 1502 1501 1501 1501 1500 1500 1499 1499 1498 1497 1497 1497 1496 1496 1496 1496 1496 1496 1496 1496 1497 1497 1498 1498 1499
1506 1506 1505 1505 1504 1504 1504 1503 1503 1502 1502 1502 1501 1501 1501 1502 1501 1501 1501 1500 1500 1500 1499 1499 1498 1498 1498 1497 1496 1495 1494 1494 1494 1494 1494 1494 1494 1494 1494 1494 1494 1495 1495
1505 1505 1504 1504 1503 1503 1503 1503 1502 1502 1501 1501 1501 1500 1501 1500 1500 1500 1500 1499 1498 1498 1498 1498 1497 1497 1496 1495 1495 1494 1492 1492 1492 1492 1491 1491 1491 1491 1490 1490 1491 1491 1492
1504 1504 1503 1503 1502 1502 1502 1502 1501 1501 1500 1500 1500 1500 1499 1499 1499 1499 1499 1498 1499 1497 1497 1496 1496 1495 1495 1494 1493 1492 1490 1490 1490 1489 1489 1489 1488 1488 1487 1487 1487 1488 1488
1503 1502 1502 1501 1501 1501 1501 1500 1500 1500 1499 1499 1499 1498 1498 1498 1497 1497 1497 1496 1496 1496 1495 1494 1494 1493 1493 1491 1491 1490 1489 1488 1487 1487 1487 1486 1486 1486 1485 1485 1485 1484 1485
1501 1500 1500 1500 1500 1500 1499 1499 1499 1499 1498 1498 1498 1497 1497 1496 1496 1495 1494 1494 1494 1494 1493 1492 1492 1491 1490 1490 1489 1488 1487 1486 1485 1484 1484 1484 1484 1483 1483 1482 1482 1481 1481
1500 1499 1499 1499 1499 1498 1498 1498 1498 1497 1497 1496 1496 1495 1495 1495 1494 1493 1492 1492 1492 1491 1491 1490 1490 1489 1488 1487 1486 1485 1485 1484 1483 1482 1481 1481 1481 1480 1480 1479 1479 1478 1478
1499 1499 1498 1498 1497 1497 1497 1497 1497 1496 1496 1495 1495 1494 1493 1492 1492 1491 1490 1490 1489 1489 1489 1488 1487 1487 1486 1485 1484 1482 1483 1482 1481 1480 1479 1479 1478 1478 1477 1477 1476 1475 1475
1497 1497 1497 1497 1496 1496 1496 1496 1495 1495 1494 1494 1493 1493 1492 1491 1490 1489 1489 1488 1487 1486 1486 1486 1485 1484 1484 1483 1482 1481 1480 1480 1479 1478 1477 1476 1476 1475 1474 1473 1473 1472 1471
1496 1496 1496 1496 1495 1495 1494 1494 1493 1493 1493 1492 1492 1491 1490 1489 1488 1488 1487 1486 1485 1485 1484 1483 1483 1482 1481 1480 1479 1478 1478 1477 1476 1476 1474 1473 1473 1471 1470 1470 1469 1468 1467
1495 1495 1494 1494 1494 1493 1493 1492 1492 1491 1491 1490 1490 1489 1489 1487 1486 1486 1485 1484 1484 1483 1482 1481 1480 1479 1478 1478 1477 1476 1475 1474 1473 1473 1472 1471 1470 1468 1467 1466 1465 1465 1464
1494 1493 1492 1492 1491 1491 1491 1490 1490 1489 1489 1488 1487 1487 1487 1486 1484 1484 1483 1482 1481 1481 1480 1479 1478 1477 1476 1475 1474 1473 1472 1471 1470 1469 1469 1467 1467 1465 1464 1463 1463 1462 1461
1492 1491 1490 1490 1490 1489 1489 1488 1488 1487 1486 1486 1485 1485 1484 1483 1482 1481 1480 1479 1478 1478 1477 1476 1475 1474 1473 1472 1471 1471 1469 1468 1467 1466 1466 1464 1463 1463 1462 1461 1460 1459 1459
1491 1491 1490 1489 1488 1487 1487 1486 1486 1484 1484 1483 1483 1482 1482 1481 1480 1479 1478 1477 1475 1474 1474 1473 1472 1471 1470 1469 1468 1467 1465 1464 1463 1462 1462 1462 1461 1460 1459 1458 1457 1457 1456
1491 1490 1489 1488 1487 1486 1485 1484 1483 1482 1481 1481 1480 1480 1479 1479 1478 1477 1475 1474 1473 1472 1471 1469 1468 1467 1466 1465 1464 1463 1462 1461 1459 1459 1459 1459 1458 1457 1456 1455 1455 1455 1454